CAPE
1 8 9 15 11 2 20 20 25 13 9 6 6 6 5 5 2 0 0 0 0 0 5 0 0 0 124 112 130 188 145 268 343 218 200 32 0 0 0 0 0 0 0 0 0
7 0 9 8 12 2 21 34 27 17 9 8 8 8 5 2 0 0 0 0 0 0 0 0 0 0 46 263 124 190 236 181 159 55 24 12 0 0 0 0 9 23 3 0 0
1 0 8 13 9 10 19 24 15 16 5 4 4 6 3 0 0 0 0 0 5 50 0 0 0 0 2 212 204 160 266 189 6 11 97 30 12 0 0 0 0 23 28 3 24
0 0 16 15 10 15 11 8 8 8 4 4 5 7 6 0 0 0 26 0 0 0 0 0 0 0 0 144 334 167 285 288 91 30 98 86 10 2 0 0 0 26 44 40 54
0 0 8 15 7 5 4 3 2 3 5 9 11 8 4 0 0 0 0 0 0 0 0 0 0 0 0 14 321 338 262 324 146 50 168 43 36 2 0 0 0 34 39 58 98
0 0 6 7 4 2 4 3 4 3 3 4 8 7 5 0 0 0 0 0 0 0 0 0 0 0 0 0 55 315 358 333 263 105 119 39 18 14 3 0 0 155 181 257 370
0 0 7 5 3 2 1 1 1 3 2 5 4 12 3 0 0 0 0 0 0 0 0 0 0 0 0 0 0 116 319 308 265 110 87 31 5 8 0 0 0 35 584 581 475
0 0 4 4 6 8 6 3 4 5 4 7 6 10 0 0 0 0 0 0 0 0 0 0 0 0 0 0 0 52 252 322 232 177 125 109 30 23 1 1 13 9 9 16 0
0 0 1 2 0 0 0 0 0 0 0 2 4 5 0 0 0 0 0 0 0 0 0 0 0 0 0 19 1 48 0 70 118 163 153 108 46 21 23 31 24 31 20 0 0
0 0 0 0 0 0 0 0 0 0 0 0 0 0 0 0 0 0 0 0 0 0 0 0 0 0 33 39 0 2 4 2 15 31 131 99 40 43 31 13 2 10 2 1 11
0 0 0 0 0 0 0 0 0 0 0 0 0 0 0 3 13 9 0 0 0 32 0 0 0 0 32 37 12 1 0 0 0 31 92 62 36 35 37 25 8 10 11 7 0
0 0 0 0 0 0 0 0 0 0 0 0 0 0 2 14 19 62 32 24 3 2 0 52 9 0 83 108 35 18 21 38 64 63 29 30 64 42 21 19 1 2 9 0 0
0 0 0 0 0 0 0 0 0 0 0 0 0 0 14 18 88 126 47 51 40 29 38 39 0 35 81 158 100 86 86 61 53 135 107 81 74 0 0 0 0 0 2 0 0
0 0 0 0 0 0 0 0 0 0 0 0 0 0 0 51 122 78 48 66 38 69 83 77 99 89 126 120 132 103 102 105 89 81 58 49 6 0 0 0 4 16 0 0 0
0 0 0 0 0 0 0 0 0 0 0 0 0 0 1 10 125 12 65 47 39 38 100 61 177 89 86 62 88 58 43 58 62 42 44 5 0 0 0 0 0 0 0 0 0
0 0 0 0 0 0 0 0 0 0 0 13 0 0 17 33 128 19 3 4 26 90 203 73 54 78 43 90 95 41 41 58 43 34 26 1 8 0 0 0 0 0 0 0 0
0 0 0 0 0 0 0 0 0 0 2 0 0 0 6 18 34 0 0 9 17 26 56 51 27 33 61 72 61 36 54 27 32 27 3 13 0 0 0 0 0 0 0 0 0
0 0 0 0 0 0 0 0 0 0 0 5 0 0 0 6 2 2 2 11 10 6 29 18 14 9 24 22 25 57 44 0 0 0 0 0 0 0 0 0 0 0 0 0 0
0 0 0 0 0 0 0 0 4 0 0 0 0 0 1 1 11 20 0 3 27 5 0 5 0 0 0 38 16 9 18 16 3 0 0 0 0 0 0 0 0 0 0 0 0
0 0 0 0 0 0 0 0 0 0 0 0 0 0 0 1 5 1 3 0 0 4 0 5 11 11 19 8 3 8 26 12 4 0 0 0 0 0 0 0 0 0 0 0 0
0 0 0 0 0 0 0 0 0 0 0 0 0 0 0 0 3 5 2 0 0 4 0 0 2 14 9 20 20 8 0 0 0 0 0 0 0 0 0 0 0 0 0 0 0
0 0 0 0 0 0 0 0 0 0 0 0 0 0 0 0 0 0 5 0 0 2 0 1 0 7 8 7 5 2 0 0 0 0 0 0 0 0 0 0 0 0 0 0 0
0 0 0 0 0 0 0 0 0 0 0 0 0 0 0 0 0 0 2 1 0 0 0 0 0 0 0 0 0 0 0 0 0 0 0 0 0 0 0 0 0 0 0 0 0
0 0 0 0 0 0 0 0 0 0 0 0 0 0 0 0 0 0 0 0 0 0 0 0 0 0 0 0 0 0 0 0 0 0 0 0 0 0 0 0 0 0 0 0 0
0 0 0 0 0 0 0 0 0 0 0 0 0 0 0 0 0 0 0 0 0 0 0 0 0 0 0 0 0 0 0 0 0 0 0 0 0 0 0 0 0 0 0 0 0
0 0 0 0 0 0 0 0 0 0 0 0 0 0 0 0 0 0 0 0 0 0 0 0 0 0 0 0 0 0 0 0 0 0 0 0 0 0 0 0 0 0 0 0 0
0 0 0 0 0 0 0 0 0 0 0 0 0 0 0 0 0 0 0 0 0 0 0 0 0 0 0 0 0 0 0 0 0 0 0 0 0 0 0 0 0 0 0 0 0
CIN
0 0 0 0 0 0 0 -1 -2 0 0 0 0 0 0 0 0 0 0 0 0 0 -376 0 0 0 -92 -68 -51 -24 -16 -103 -60 -45 -31 -24 0 0 0 0 0 0 0 0 0
0 0 0 0 0 0 -1 -3 -3 0 0 0 0 0 0 0 0 0 0 0 0 0 0 0 0 0 -153 -21 -59 -30 -15 -20 -45 -29 -34 -8 0 0 0 0 -119 -104 -37 0 0
0 0 0 0 0 0 0 0 0 0 0 0 0 0 0 0 0 0 0 0 -22 -367 0 0 0 0 -14 -43 -43 -69 -19 -36 -16 -22 -9 -19 -5 0 0 0 -20 -178 -138 -54 -155
0 0 0 0 0 0 0 0 0 0 0 0 0 0 0 0 0 0 -224 0 0 0 0 0 0 0 0 -105 -12 -49 -25 -33 -44 -45 -5 -19 -9 -1 0 0 0 -195 -163 -172 -219
0 0 0 0 0 0 0 0 0 0 0 0 0 0 -4 0 0 0 0 0 0 0 0 0 0 0 0 -43 -18 -7 -17 -25 -40 -37 -6 -15 -17 -13 0 0 0 -204 -146 -141 -127
0 0 0 0 0 0 0 0 0 0 0 0 0 0 -1 0 0 0 0 0 0 0 0 0 0 0 0 0 -29 -9 -6 -18 -24 -26 -12 -21 -10 -9 -18 0 0 -127 -132 -93 -78
0 0 0 0 0 0 0 0 0 0 0 0 0 0 0 0 0 0 0 0 0 0 0 0 0 0 0 0 0 -20 -4 -12 -17 -13 -17 -41 -5 -16 0 0 0 -13 -87 -66 -61
0 0 0 0 0 0 0 0 0 0 0 0 0 0 0 0 0 0 0 0 0 0 0 0 0 0 0 0 0 -31 -3 -3 -4 -6 -7 -10 -12 -8 -11 -3 -7 -21 -67 -110 0
0 0 0 0 0 0 0 0 0 0 0 0 0 0 0 0 0 0 0 0 0 0 0 0 0 0 0 -2 0 -45 0 -29 -11 -10 -8 -5 -17 -14 -24 -16 -6 -10 -13 -5 0
0 0 0 0 0 0 0 0 0 0 0 0 0 0 0 0 0 0 0 0 0 0 0 0 0 0 -3 -1 0 -1 -1 -1 -38 -12 -11 -16 -23 -28 -4 -3 -2 -4 -2 -11 -7
0 0 0 0 0 0 0 0 0 0 0 0 0 0 0 -139 -116 -81 0 0 0 -5 0 0 0 0 -1 -3 -4 -1 0 0 0 -12 -4 -9 -12 -19 -24 -7 -5 -25 -33 -9 0
0 0 0 0 0 0 0 0 0 0 0 0 0 0 -155 -101 -69 -58 -16 -31 -21 -11 0 -3 -1 0 -4 -15 -3 -1 -2 -2 -3 -20 -7 -11 -27 -37 -26 -47 -6 -26 -38 0 0
0 0 0 0 0 0 0 0 0 0 0 0 0 0 -32 -83 -22 -24 -16 -5 -6 -11 -6 -12 -1 -13 -4 -12 -10 -8 -7 -8 -8 -55 -28 -15 -22 0 0 0 0 -10 -55 0 0
0 0 0 0 0 0 0 0 0 0 0 0 0 0 0 -135 -18 -39 -122 -112 -8 -11 -13 -10 -8 -45 -14 -13 -20 -28 -37 -19 -7 -11 -7 -15 -4 0 0 0 -148 -151 0 0 0
0 0 0 0 0 0 0 0 0 0 0 -1 0 0 -6 -33 -20 -34 -132 -43 -133 -40 -42 -26 -35 -12 -7 -35 -28 -41 -19 -17 -13 -7 -9 -4 0 0 0 0 0 0 0 0 0
0 0 0 0 0 0 0 0 0 0 0 -24 0 0 -39 -35 -20 -55 -101 -27 -110 -57 -22 -52 -31 -46 -21 -19 -22 -24 -14 -11 -13 -5 -1 -2 -9 0 0 0 0 0 0 0 0
0 0 0 0 0 0 0 0 0 0 -14 0 0 0 -10 -18 -35 0 0 -7 -21 -16 -56 -45 -34 -24 -12 -25 -26 -30 -13 -5 0 0 -1 -7 -2 0 0 0 0 0 0 0 0
0 0 0 0 0 0 0 0 0 0 0 -70 0 0 -12 -11 -12 -55 -3 -27 -15 -38 -29 -22 -6 -13 -17 -20 -22 -21 -21 -1 0 0 0 0 0 0 0 0 0 0 0 0 0
0 0 0 0 0 0 0 0 -19 0 0 0 0 0 -13 -3 -20 -37 -5 -8 -15 -43 0 -25 0 -1 -4 -38 -21 -25 -18 -5 -4 0 0 0 0 0 0 0 0 0 0 0 0
0 0 0 0 0 0 0 0 0 0 0 0 0 -13 0 -13 -26 -3 -32 0 0 -7 0 -7 -21 -37 -12 -12 -32 -21 -26 -9 -9 0 0 0 0 0 0 0 0 0 0 0 0
0 0 0 0 0 0 0 0 0 0 0 0 0 0 0 -23 -7 -8 -8 0 0 -12 0 -5 -4 -9 -10 -15 -31 -32 -17 0 -12 0 0 0 0 0 0 0 0 0 0 0 0
0 0 0 0 0 0 0 0 0 0 0 0 0 0 0 0 0 -1 -9 0 0 -17 0 -50 -2 -9 -13 -8 -6 -14 0 0 0 0 0 0 0 0 0 0 0 0 0 0 0
0 0 0 0 0 0 0 0 0 0 0 0 0 0 0 0 0 0 -40 -47 0 0 0 0 -1 0 0 0 0 0 0 0 0 0 0 0 0 0 0 0 0 0 0 0 0
0 0 0 0 0 0 0 0 0 0 0 0 0 0 0 0 0 0 0 0 0 0 0 0 0 0 0 0 0 0 0 0 0 0 0 0 0 0 0 0 0 0 0 0 0
0 0 0 0 0 0 0 0 0 0 0 0 0 0 0 0 0 0 0 0 0 0 0 0 0 0 0 0 0 0 0 0 0 0 0 0 0 0 0 0 0 0 0 0 0
0 0 0 0 0 0 0 0 0 0 0 0 0 0 0 0 0 0 0 0 0 0 0 0 0 0 0 0 0 0 0 0 0 0 0 0 0 0 0 0 0 0 0 0 0
0 0 0 0 0 0 0 0 0 0 0 0 0 0 0 0 0 0 0 0 0 0 0 0 0 0 0 0 0 0 0 0 0 0 0 0 0 0 0 0 0 0 0 0 0
Wind_Speed
nan nan nan nan nan nan nan nan nan nan nan nan nan nan nan nan nan nan nan nan nan nan nan nan nan nan 38 36 34 39 37 25 24 30 20 nan nan nan nan nan nan nan nan nan nan
nan nan nan nan nan nan nan nan nan nan nan nan nan nan nan nan nan nan nan nan nan nan nan nan nan nan nan 37 37 41 36 21 26 nan nan nan nan nan nan nan nan nan nan nan nan
nan nan nan nan nan nan nan nan nan nan nan nan nan nan nan nan nan nan nan nan nan nan nan nan nan nan nan 42 40 38 33 25 nan nan nan nan nan nan nan nan nan nan nan nan nan
nan nan nan nan nan nan nan nan nan nan nan nan nan nan nan nan nan nan nan nan nan nan nan nan nan nan nan 41 40 41 34 33 nan nan nan nan nan nan nan nan nan nan nan nan nan
nan nan nan nan nan nan nan nan nan nan nan nan nan nan nan nan nan nan nan nan nan nan nan nan nan nan nan nan 44 41 37 32 33 nan 35 nan nan nan nan nan nan nan nan nan nan
nan nan nan nan nan nan nan nan nan nan nan nan nan nan nan nan nan nan nan nan nan nan nan nan nan nan nan nan nan 41 40 35 35 41 37 nan nan nan nan nan nan 41 37 37 36
nan nan nan nan nan nan nan nan nan nan nan nan nan nan nan nan nan nan nan nan nan nan nan nan nan nan nan nan nan 49 49 43 38 41 nan nan nan nan nan nan nan nan 34 32 33
nan nan nan nan nan nan nan nan nan nan nan nan nan nan nan nan nan nan nan nan nan nan nan nan nan nan nan nan nan nan 54 46 41 42 41 38 nan nan nan nan nan nan nan nan nan
nan nan nan nan nan nan nan nan nan nan nan nan nan nan nan nan nan nan nan nan nan nan nan nan nan nan nan nan nan nan nan nan 47 42 40 38 nan nan nan nan nan nan nan nan nan
nan nan nan nan nan nan nan nan nan nan nan nan nan nan nan nan nan nan nan nan nan nan nan nan nan nan nan nan nan nan nan nan nan nan 40 nan nan nan nan nan nan nan nan nan nan
nan nan nan nan nan nan nan nan nan nan nan nan nan nan nan nan nan nan nan nan nan nan nan nan nan nan nan nan nan nan nan nan nan nan nan nan nan nan nan nan nan nan nan nan nan
nan nan nan nan nan nan nan nan nan nan nan nan nan nan nan nan nan nan nan nan nan nan nan nan nan nan nan 49 nan nan nan nan nan nan nan nan nan nan nan nan nan nan nan nan nan
nan nan nan nan nan nan nan nan nan nan nan nan nan nan nan nan nan 12 nan nan nan nan nan nan nan nan nan 41 36 nan nan nan nan 37 38 nan nan nan nan nan nan nan nan nan nan
nan nan nan nan nan nan nan nan nan nan nan nan nan nan nan nan 15 nan nan nan nan nan nan nan nan nan 40 37 32 28 29 29 nan nan nan nan nan nan nan nan nan nan nan nan nan
nan nan nan nan nan nan nan nan nan nan nan nan nan nan nan nan 13 nan nan nan nan nan 21 nan 31 nan nan nan nan nan nan nan nan nan nan nan nan nan nan nan nan nan nan nan nan
nan nan nan nan nan nan nan nan nan nan nan nan nan nan nan nan 9 nan nan nan nan nan 23 nan nan nan nan nan nan nan nan nan nan nan nan nan nan nan nan nan nan nan nan nan nan
nan nan nan nan nan nan nan nan nan nan nan nan nan nan nan nan nan nan nan nan nan nan nan nan nan nan nan nan nan nan nan nan nan nan nan nan nan nan nan nan nan nan nan nan nan
nan nan nan nan nan nan nan nan nan nan nan nan nan nan nan nan nan nan nan nan nan nan nan nan nan nan nan nan nan nan nan nan nan nan nan nan nan nan nan nan nan nan nan nan nan
nan nan nan nan nan nan nan nan nan nan nan nan nan nan nan nan nan nan nan nan nan nan nan nan nan nan nan nan nan nan nan nan nan nan nan nan nan nan nan nan nan nan nan nan nan
nan nan nan nan nan nan nan nan nan nan nan nan nan nan nan nan nan nan nan nan nan nan nan nan nan nan nan nan nan nan nan nan nan nan nan nan nan nan nan nan nan nan nan nan nan
nan nan nan nan nan nan nan nan nan nan nan nan nan nan nan nan nan nan nan nan nan nan nan nan nan nan nan nan nan nan nan nan nan nan nan nan nan nan nan nan nan nan nan nan nan
nan nan nan nan nan nan nan nan nan nan nan nan nan nan nan nan nan nan nan nan nan nan nan nan nan nan nan nan nan nan nan nan nan nan nan nan nan nan nan nan nan nan nan nan nan
nan nan nan nan nan nan nan nan nan nan nan nan nan nan nan nan nan nan nan nan nan nan nan nan nan nan nan nan nan nan nan nan nan nan nan nan nan nan nan nan nan nan nan nan nan
nan nan nan nan nan nan nan nan nan nan nan nan nan nan nan nan nan nan nan nan nan nan nan nan nan nan nan nan nan nan nan nan nan nan nan nan nan nan nan nan nan nan nan nan nan
nan nan nan nan nan nan nan nan nan nan nan nan nan nan nan nan nan nan nan nan nan nan nan nan nan nan nan nan nan nan nan nan nan nan nan nan nan nan nan nan nan nan nan nan nan
nan nan nan nan nan nan nan nan nan nan nan nan nan nan nan nan nan nan nan nan nan nan nan nan nan nan nan nan nan nan nan nan nan nan nan nan nan nan nan nan nan nan nan nan nan
nan nan nan nan nan nan nan nan nan nan nan nan nan nan nan nan nan nan nan nan nan nan nan nan nan nan nan nan nan nan nan nan nan nan nan nan nan nan nan nan nan nan nan nan nan
Wind_Direction
nan nan nan nan nan nan nan nan nan nan nan nan nan nan nan nan nan nan nan nan nan nan nan nan nan nan 241 240 241 243 237 234 246 255 250 nan nan nan nan nan nan nan nan nan nan
nan nan nan nan nan nan nan nan nan nan nan nan nan nan nan nan nan nan nan nan nan nan nan nan nan nan nan 242 241 245 243 230 236 nan nan nan nan nan nan nan nan nan nan nan nan
nan nan nan nan nan nan nan nan nan nan nan nan nan nan nan nan nan nan nan nan nan nan nan nan nan nan nan 242 242 248 245 232 nan nan nan nan nan nan nan nan nan nan nan nan nan
nan nan nan nan nan nan nan nan nan nan nan nan nan nan nan nan nan nan nan nan nan nan nan nan nan nan nan 245 244 245 242 233 nan nan nan nan nan nan nan nan nan nan nan nan nan
nan nan nan nan nan nan nan nan nan nan nan nan nan nan nan nan nan nan nan nan nan nan nan nan nan nan nan nan 242 246 242 235 224 nan 243 nan nan nan nan nan nan nan nan nan nan
nan nan nan nan nan nan nan nan nan nan nan nan nan nan nan nan nan nan nan nan nan nan nan nan nan nan nan nan nan 244 245 240 231 237 239 nan nan nan nan nan nan 294 303 311 315
nan nan nan nan nan nan nan nan nan nan nan nan nan nan nan nan nan nan nan nan nan nan nan nan nan nan nan nan nan 236 238 235 234 236 nan nan nan nan nan nan nan nan 304 311 317
nan nan nan nan nan nan nan nan nan nan nan nan nan nan nan nan nan nan nan nan nan nan nan nan nan nan nan nan nan nan 235 237 232 237 232 240 nan nan nan nan nan nan nan nan nan
nan nan nan nan nan nan nan nan nan nan nan nan nan nan nan nan nan nan nan nan nan nan nan nan nan nan nan nan nan nan nan nan 236 232 240 242 nan nan nan nan nan nan nan nan nan
nan nan nan nan nan nan nan nan nan nan nan nan nan nan nan nan nan nan nan nan nan nan nan nan nan nan nan nan nan nan nan nan nan nan 237 nan nan nan nan nan nan nan nan nan nan
nan nan nan nan nan nan nan nan nan nan nan nan nan nan nan nan nan nan nan nan nan nan nan nan nan nan nan nan nan nan nan nan nan nan nan nan nan nan nan nan nan nan nan nan nan
nan nan nan nan nan nan nan nan nan nan nan nan nan nan nan nan nan nan nan nan nan nan nan nan nan nan nan 224 nan nan nan nan nan nan nan nan nan nan nan nan nan nan nan nan nan
nan nan nan nan nan nan nan nan nan nan nan nan nan nan nan nan nan 61 nan nan nan nan nan nan nan nan nan 223 224 nan nan nan nan 240 237 nan nan nan nan nan nan nan nan nan nan
nan nan nan nan nan nan nan nan nan nan nan nan nan nan nan nan 27 nan nan nan nan nan nan nan nan nan 208 209 225 222 233 234 nan nan nan nan nan nan nan nan nan nan nan nan nan
nan nan nan nan nan nan nan nan nan nan nan nan nan nan nan nan 29 nan nan nan nan nan 209 nan 196 nan nan nan nan nan nan nan nan nan nan nan nan nan nan nan nan nan nan nan nan
nan nan nan nan nan nan nan nan nan nan nan nan nan nan nan nan 1 nan nan nan nan nan 176 nan nan nan nan nan nan nan nan nan nan nan nan nan nan nan nan nan nan nan nan nan nan
nan nan nan nan nan nan nan nan nan nan nan nan nan nan nan nan nan nan nan nan nan nan nan nan nan nan nan nan nan nan nan nan nan nan nan nan nan nan nan nan nan nan nan nan nan
nan nan nan nan nan nan nan nan nan nan nan nan nan nan nan nan nan nan nan nan nan nan nan nan nan nan nan nan nan nan nan nan nan nan nan nan nan nan nan nan nan nan nan nan nan
nan nan nan nan nan nan nan nan nan nan nan nan nan nan nan nan nan nan nan nan nan nan nan nan nan nan nan nan nan nan nan nan nan nan nan nan nan nan nan nan nan nan nan nan nan
nan nan nan nan nan nan nan nan nan nan nan nan nan nan nan nan nan nan nan nan nan nan nan nan nan nan nan nan nan nan nan nan nan nan nan nan nan nan nan nan nan nan nan nan nan
nan nan nan nan nan nan nan nan nan nan nan nan nan nan nan nan nan nan nan nan nan nan nan nan nan nan nan nan nan nan nan nan nan nan nan nan nan nan nan nan nan nan nan nan nan
nan nan nan nan nan nan nan nan nan nan nan nan nan nan nan nan nan nan nan nan nan nan nan nan nan nan nan nan nan nan nan nan nan nan nan nan nan nan nan nan nan nan nan nan nan
nan nan nan nan nan nan nan nan nan nan nan nan nan nan nan nan nan nan nan nan nan nan nan nan nan nan nan nan nan nan nan nan nan nan nan nan nan nan nan nan nan nan nan nan nan
nan nan nan nan nan nan nan nan nan nan nan nan nan nan nan nan nan nan nan nan nan nan nan nan nan nan nan nan nan nan nan nan nan nan nan nan nan nan nan nan nan nan nan nan nan
nan nan nan nan nan nan nan nan nan nan nan nan nan nan nan nan nan nan nan nan nan nan nan nan nan nan nan nan nan nan nan nan nan nan nan nan nan nan nan nan nan nan nan nan nan
nan nan nan nan nan nan nan nan nan nan nan nan nan nan nan nan nan nan nan nan nan nan nan nan nan nan nan nan nan nan nan nan nan nan nan nan nan nan nan nan nan nan nan nan nan
nan nan nan nan nan nan nan nan nan nan nan nan nan nan nan nan nan nan nan nan nan nan nan nan nan nan nan nan nan nan nan nan nan nan nan nan nan nan nan nan nan nan nan nan nan